FDX791 CYYZ-KBOS

Flight info

Callsign FDX791
Flight time 1h 5m
Altitude 31000
Route KEPTA3BMPAH/06L KEPTA3 BMPAH DCT AEVON DCT HANKK DCT PONCT JFUND2
Aircraft B738/M-SDE2E3FGHIRWXY/LB1

Departure

Time 2026-05-08 00:14
Airport Toronto Pearson International Airport (CYYZ)

Arrival

Time 2026-05-08 01:19
Airport Boston Logan International Airport (KBOS)
Time Latitude Longitude Altitude Speed Heading
2026-05-07 23:42 43.68922 -79.65003 567 ft 0 kts 156°
2026-05-08 00:04 43.68921 -79.65003 567 ft 0 kts 163°
2026-05-08 00:05 43.68918 -79.65007 573 ft 1 kts 212°
2026-05-08 00:05 43.68918 -79.65014 572 ft 1 kts 273°
2026-05-08 00:05 43.68926 -79.65014 575 ft 1 kts 19°
2026-05-08 00:06 43.68937 -79.64998 575 ft 3 kts 47°
2026-05-08 00:06 43.68954 -79.64971 571 ft 5 kts 50°
2026-05-08 00:06 43.68980 -79.64930 567 ft 6 kts 48°
2026-05-08 00:06 43.68999 -79.64881 570 ft 6 kts 85°
2026-05-08 00:07 43.68983 -79.64831 570 ft 6 kts 130°
2026-05-08 00:07 43.68936 -79.64821 571 ft 9 kts 202°
2026-05-08 00:07 43.68878 -79.64892 574 ft 13 kts 228°
2026-05-08 00:07 43.68812 -79.64987 571 ft 14 kts 223°
2026-05-08 00:08 43.68738 -79.65068 572 ft 13 kts 216°
2026-05-08 00:08 43.68670 -79.65150 576 ft 13 kts 225°
2026-05-08 00:08 43.68604 -79.65228 577 ft 13 kts 204°
2026-05-08 00:08 43.68511 -79.65254 575 ft 15 kts 184°
2026-05-08 00:09 43.68402 -79.65306 572 ft 18 kts 217°
2026-05-08 00:09 43.68317 -79.65423 572 ft 17 kts 226°
2026-05-08 00:09 43.68234 -79.65546 568 ft 17 kts 227°
2026-05-08 00:09 43.68153 -79.65664 572 ft 17 kts 227°
2026-05-08 00:10 43.68071 -79.65783 572 ft 17 kts 226°
2026-05-08 00:10 43.67991 -79.65898 571 ft 16 kts 226°
2026-05-08 00:10 43.67915 -79.66008 572 ft 16 kts 226°
2026-05-08 00:10 43.67842 -79.66114 577 ft 15 kts 226°
2026-05-08 00:11 43.67771 -79.66216 572 ft 14 kts 226°
2026-05-08 00:11 43.67704 -79.66315 574 ft 14 kts 227°
2026-05-08 00:11 43.67640 -79.66409 575 ft 13 kts 227°
2026-05-08 00:11 43.67577 -79.66499 571 ft 11 kts 223°
2026-05-08 00:12 43.67522 -79.66518 563 ft 7 kts 161°
2026-05-08 00:12 43.67504 -79.66501 576 ft 0 kts 141°
2026-05-08 00:12 43.67474 -79.66465 571 ft 11 kts 135°
2026-05-08 00:13 43.67455 -79.66346 577 ft 15 kts 52°
2026-05-08 00:13 43.67545 -79.66220 577 ft 34 kts 46°
2026-05-08 00:13 43.67884 -79.65733 579 ft 105 kts 46°
2026-05-08 00:13 43.68533 -79.64790 577 ft 163 kts 46°
2026-05-08 00:14 43.69310 -79.63574 1137 ft 169 kts 47°
2026-05-08 00:14 43.70163 -79.62483 1975 ft 168 kts 34°
2026-05-08 00:14 43.71142 -79.61521 2547 ft 183 kts 32°
2026-05-08 00:14 43.72275 -79.60444 2824 ft 211 kts 32°
2026-05-08 00:15 43.73550 -79.59234 3023 ft 233 kts 32°
2026-05-08 00:15 43.74931 -79.57916 3286 ft 253 kts 32°
2026-05-08 00:15 43.76413 -79.56492 3799 ft 265 kts 37°
2026-05-08 00:15 43.77507 -79.54445 4625 ft 272 kts 71°
2026-05-08 00:16 43.77615 -79.51828 5399 ft 278 kts 103°
2026-05-08 00:16 43.76835 -79.49398 6189 ft 279 kts 128°
2026-05-08 00:16 43.75488 -79.47483 6803 ft 280 kts 142°
2026-05-08 00:16 43.73976 -79.45778 6977 ft 279 kts 144°
2026-05-08 00:17 43.72448 -79.44131 7004 ft 280 kts 145°
2026-05-08 00:17 43.70900 -79.42466 7022 ft 284 kts 146°
2026-05-08 00:17 43.69334 -79.40775 7027 ft 287 kts 144°
2026-05-08 00:17 43.67753 -79.39046 7416 ft 292 kts 144°
2026-05-08 00:18 43.66169 -79.37300 8314 ft 290 kts 145°
2026-05-08 00:18 43.64582 -79.35547 9081 ft 294 kts 146°
2026-05-08 00:18 43.62975 -79.33770 9832 ft 298 kts 146°
2026-05-08 00:18 43.61338 -79.31959 10411 ft 308 kts 146°
2026-05-08 00:19 43.59604 -79.30047 10592 ft 331 kts 146°
2026-05-08 00:19 43.57772 -79.28021 11050 ft 342 kts 146°
2026-05-08 00:19 43.55908 -79.25952 11759 ft 345 kts 146°
2026-05-08 00:19 43.54035 -79.23873 12567 ft 346 kts 146°
2026-05-08 00:20 43.52151 -79.21786 13348 ft 349 kts 146°
2026-05-08 00:20 43.50258 -79.19691 14169 ft 349 kts 146°
2026-05-08 00:20 43.48345 -79.17581 14830 ft 355 kts 146°
2026-05-08 00:20 43.46380 -79.15410 15490 ft 361 kts 144°
2026-05-08 00:21 43.44617 -79.12964 16157 ft 370 kts 131°
2026-05-08 00:21 43.43191 -79.09973 16854 ft 379 kts 119°
2026-05-08 00:21 43.42099 -79.06642 17543 ft 384 kts 115°
2026-05-08 00:21 43.41053 -79.03181 18195 ft 389 kts 114°
2026-05-08 00:22 43.40032 -78.99767 18775 ft 394 kts 114°
2026-05-08 00:22 43.38979 -78.96280 19399 ft 396 kts 115°
2026-05-08 00:22 43.37904 -78.92771 20009 ft 400 kts 115°
2026-05-08 00:22 43.36811 -78.89240 20597 ft 403 kts 115°
2026-05-08 00:23 43.35703 -78.85684 21178 ft 407 kts 115°
2026-05-08 00:23 43.34583 -78.82099 21740 ft 410 kts 115°
2026-05-08 00:23 43.33449 -78.78477 22319 ft 414 kts 115°
2026-05-08 00:23 43.32306 -78.74831 22884 ft 417 kts 115°
2026-05-08 00:24 43.31151 -78.71154 23437 ft 421 kts 115°
2026-05-08 00:24 43.29986 -78.67454 23864 ft 425 kts 116°
2026-05-08 00:24 43.28803 -78.63709 24220 ft 430 kts 116°
2026-05-08 00:24 43.28013 -78.61201 24471 ft 433 kts 116°
2026-05-08 00:25 43.26813 -78.57387 24864 ft 437 kts 116°
2026-05-08 00:25 43.25599 -78.53536 25260 ft 441 kts 116°
2026-05-08 00:25 43.24368 -78.49642 25484 ft 450 kts 117°
2026-05-08 00:25 43.23110 -78.45671 25743 ft 457 kts 117°
2026-05-08 00:26 43.21844 -78.41671 26168 ft 459 kts 117°
2026-05-08 00:26 43.20567 -78.37645 26568 ft 462 kts 117°
2026-05-08 00:26 43.19319 -78.33569 26935 ft 467 kts 112°
2026-05-08 00:26 43.18506 -78.29228 27363 ft 474 kts 101°
2026-05-08 00:27 43.18131 -78.24723 27756 ft 478 kts 98°
2026-05-08 00:27 43.17807 -78.20163 28060 ft 483 kts 97°
2026-05-08 00:27 43.17486 -78.15562 28394 ft 487 kts 98°
2026-05-08 00:27 43.17154 -78.10947 28832 ft 488 kts 98°
2026-05-08 00:28 43.16809 -78.06320 29300 ft 488 kts 98°
2026-05-08 00:28 43.16450 -78.01694 29731 ft 489 kts 99°
2026-05-08 00:28 43.16081 -77.97050 30094 ft 492 kts 99°
2026-05-08 00:28 43.15704 -77.92391 30387 ft 494 kts 99°
2026-05-08 00:29 43.15321 -77.87710 30728 ft 494 kts 99°
2026-05-08 00:29 43.14935 -77.83020 30943 ft 498 kts 99°
2026-05-08 00:29 43.14154 -77.73585 30918 ft 496 kts 99°
2026-05-08 00:30 43.13422 -77.64772 30910 ft 491 kts 99°
2026-05-08 00:30 43.12638 -77.55461 30896 ft 494 kts 100°
2026-05-08 00:31 43.11841 -77.46102 30929 ft 496 kts 100°
2026-05-08 00:31 43.11033 -77.36694 30931 ft 499 kts 100°
2026-05-08 00:32 43.10214 -77.27246 30933 ft 501 kts 100°
2026-05-08 00:32 43.09386 -77.17772 30916 ft 501 kts 101°
2026-05-08 00:33 43.08551 -77.08313 30931 ft 501 kts 101°
2026-05-08 00:33 43.07709 -76.98863 30926 ft 500 kts 101°
2026-05-08 00:34 43.06861 -76.89438 30927 ft 499 kts 101°
2026-05-08 00:34 43.06005 -76.80032 30923 ft 498 kts 102°
2026-05-08 00:35 43.05143 -76.70632 30934 ft 499 kts 102°
2026-05-08 00:35 43.04269 -76.61203 30953 ft 501 kts 102°
2026-05-08 00:36 43.03386 -76.51750 30925 ft 501 kts 101°
2026-05-08 00:36 43.02501 -76.42350 30915 ft 497 kts 102°
2026-05-08 00:37 43.01614 -76.33017 30908 ft 494 kts 102°
2026-05-08 00:38 43.00273 -76.19078 30918 ft 493 kts 102°
2026-05-08 00:38 42.99370 -76.09795 30897 ft 493 kts 103°
2026-05-08 00:39 42.98455 -76.00482 30916 ft 496 kts 103°
2026-05-08 00:39 42.97528 -75.91114 30926 ft 500 kts 103°
2026-05-08 00:40 42.96586 -75.81680 30922 ft 503 kts 103°
2026-05-08 00:40 42.95635 -75.72205 30895 ft 504 kts 103°
2026-05-08 00:41 42.94671 -75.62705 30909 ft 506 kts 104°
2026-05-08 00:41 42.93698 -75.53193 30913 ft 507 kts 104°
2026-05-08 00:42 42.92717 -75.43676 30918 ft 506 kts 104°
2026-05-08 00:42 42.91733 -75.34203 30914 ft 504 kts 104°
2026-05-08 00:43 42.90742 -75.24752 30912 ft 503 kts 104°
2026-05-08 00:43 42.89745 -75.15321 30911 ft 503 kts 104°
2026-05-08 00:44 42.88738 -75.05884 30881 ft 503 kts 104°
2026-05-08 00:44 42.87726 -74.96463 30915 ft 502 kts 105°
2026-05-08 00:45 42.86703 -74.87033 30916 ft 504 kts 105°
2026-05-08 00:45 42.85671 -74.77578 30911 ft 505 kts 105°
2026-05-08 00:46 42.84631 -74.68124 30919 ft 505 kts 105°
2026-05-08 00:46 42.83582 -74.58661 30903 ft 505 kts 105°
2026-05-08 00:47 42.82524 -74.49197 30903 ft 505 kts 105°
2026-05-08 00:47 42.81460 -74.39737 30910 ft 505 kts 105°
2026-05-08 00:48 42.80389 -74.30295 30882 ft 504 kts 105°
2026-05-08 00:48 42.79313 -74.20882 30905 ft 503 kts 105°
2026-05-08 00:49 42.78222 -74.11420 30899 ft 502 kts 106°
2026-05-08 00:49 42.77134 -74.02039 30879 ft 502 kts 106°
2026-05-08 00:50 42.76038 -73.92664 30876 ft 501 kts 106°
2026-05-08 00:50 42.74935 -73.83288 30882 ft 502 kts 106°
2026-05-08 00:51 42.74353 -73.73818 30885 ft 510 kts 95°
2026-05-08 00:51 42.74442 -73.64081 30841 ft 512 kts 94°
2026-05-08 00:52 42.74504 -73.54484 30892 ft 510 kts 95°
2026-05-08 00:52 42.74444 -73.44839 30867 ft 510 kts 96°
2026-05-08 00:53 42.74341 -73.35225 30848 ft 502 kts 96°
2026-05-08 00:53 42.74295 -73.30547 30831 ft 488 kts 96°
2026-05-08 00:53 42.74249 -73.25997 30811 ft 474 kts 96°
2026-05-08 00:53 42.74200 -73.21579 30819 ft 460 kts 96°
2026-05-08 00:54 42.74151 -73.17280 30739 ft 451 kts 96°
2026-05-08 00:54 42.74100 -73.13036 30485 ft 447 kts 96°
2026-05-08 00:54 42.73946 -73.08830 30088 ft 444 kts 103°
2026-05-08 00:54 42.73524 -73.04635 29141 ft 454 kts 107°
2026-05-08 00:55 42.72961 -73.00338 28061 ft 468 kts 108°
2026-05-08 00:55 42.72372 -72.95972 27527 ft 468 kts 107°
2026-05-08 00:55 42.71815 -72.91640 27215 ft 462 kts 107°
2026-05-08 00:55 42.71293 -72.87365 26918 ft 456 kts 106°
2026-05-08 00:56 42.70791 -72.83116 26521 ft 453 kts 106°
2026-05-08 00:56 42.70298 -72.78900 26090 ft 451 kts 106°
2026-05-08 00:56 42.69807 -72.74710 25727 ft 447 kts 106°
2026-05-08 00:56 42.69321 -72.70554 25394 ft 443 kts 106°
2026-05-08 00:57 42.68836 -72.66441 25055 ft 439 kts 107°
2026-05-08 00:57 42.68350 -72.62353 24698 ft 436 kts 107°
2026-05-08 00:57 42.67861 -72.58302 24323 ft 433 kts 107°
2026-05-08 00:57 42.67371 -72.54275 23987 ft 430 kts 107°
2026-05-08 00:58 42.66884 -72.50284 23628 ft 428 kts 107°
2026-05-08 00:58 42.66395 -72.46293 23097 ft 428 kts 107°
2026-05-08 00:58 42.65905 -72.42305 22583 ft 428 kts 107°
2026-05-08 00:58 42.65415 -72.38310 22043 ft 428 kts 107°
2026-05-08 00:59 42.64924 -72.34322 21553 ft 428 kts 107°
2026-05-08 00:59 42.64436 -72.30342 21043 ft 427 kts 106°
2026-05-08 00:59 42.63968 -72.26357 20533 ft 427 kts 105°
2026-05-08 00:59 42.63509 -72.22377 19923 ft 428 kts 105°
2026-05-08 01:00 42.63044 -72.18349 19037 ft 437 kts 105°
2026-05-08 01:00 42.62569 -72.14261 18339 ft 439 kts 105°
2026-05-08 01:00 42.62092 -72.10162 17666 ft 439 kts 104°
2026-05-08 01:00 42.61615 -72.06087 17037 ft 436 kts 104°
2026-05-08 01:01 42.61134 -72.02038 16469 ft 432 kts 104°
2026-05-08 01:01 42.60638 -71.98023 15934 ft 428 kts 103°
2026-05-08 01:01 42.60146 -71.94085 15544 ft 417 kts 103°
2026-05-08 01:01 42.59673 -71.90284 15169 ft 400 kts 103°
2026-05-08 01:02 42.59219 -71.86635 14797 ft 386 kts 103°
2026-05-08 01:02 42.58777 -71.83106 14474 ft 372 kts 103°
2026-05-08 01:02 42.58323 -71.79728 14184 ft 358 kts 105°
2026-05-08 01:02 42.57811 -71.76480 13854 ft 347 kts 105°
2026-05-08 01:03 42.57293 -71.73321 13509 ft 338 kts 105°
2026-05-08 01:03 42.56790 -71.70244 13139 ft 330 kts 105°
2026-05-08 01:03 42.56302 -71.67209 12840 ft 328 kts 104°
2026-05-08 01:03 42.55820 -71.64188 12514 ft 327 kts 104°
2026-05-08 01:04 42.55342 -71.61183 12192 ft 325 kts 104°
2026-05-08 01:04 42.54850 -71.58196 11897 ft 323 kts 106°
2026-05-08 01:04 42.54263 -71.55260 11650 ft 324 kts 108°
2026-05-08 01:04 42.53634 -71.52306 11406 ft 328 kts 108°
2026-05-08 01:05 42.52995 -71.49321 11115 ft 331 kts 108°
2026-05-08 01:05 42.52360 -71.46319 10855 ft 332 kts 107°
2026-05-08 01:05 42.51942 -71.44321 10679 ft 332 kts 107°
2026-05-08 01:05 42.51316 -71.41320 10398 ft 329 kts 107°
2026-05-08 01:06 42.50698 -71.38355 10145 ft 325 kts 107°
2026-05-08 01:06 42.50092 -71.35424 9964 ft 318 kts 106°
2026-05-08 01:06 42.49526 -71.32596 9959 ft 305 kts 105°
2026-05-08 01:06 42.48970 -71.29799 9461 ft 310 kts 105°
2026-05-08 01:07 42.48412 -71.26991 9142 ft 308 kts 105°
2026-05-08 01:07 42.47857 -71.24203 8879 ft 304 kts 105°
2026-05-08 01:07 42.47307 -71.21454 8623 ft 301 kts 105°
2026-05-08 01:07 42.46762 -71.18741 8374 ft 297 kts 105°
2026-05-08 01:08 42.46224 -71.16065 8135 ft 292 kts 105°
2026-05-08 01:08 42.45834 -71.13349 7891 ft 288 kts 96°
2026-05-08 01:08 42.45625 -71.10710 7675 ft 284 kts 95°
2026-05-08 01:08 42.45418 -71.08068 7461 ft 280 kts 95°
2026-05-08 01:09 42.45194 -71.05462 7228 ft 277 kts 96°
2026-05-08 01:09 42.44968 -71.02891 7014 ft 273 kts 95°
2026-05-08 01:09 42.44695 -71.00381 6903 ft 266 kts 99°
2026-05-08 01:09 42.44364 -70.97914 6560 ft 268 kts 99°
2026-05-08 01:10 42.44155 -70.95408 6171 ft 270 kts 84°
2026-05-08 01:10 42.44493 -70.92913 5799 ft 270 kts 75°
2026-05-08 01:10 42.44918 -70.90429 5417 ft 272 kts 75°
2026-05-08 01:10 42.45337 -70.87923 5030 ft 274 kts 76°
2026-05-08 01:11 42.45741 -70.85387 4645 ft 276 kts 77°
2026-05-08 01:11 42.46187 -70.82850 4247 ft 278 kts 75°
2026-05-08 01:11 42.46573 -70.80288 4021 ft 274 kts 77°
2026-05-08 01:11 42.46931 -70.77815 3992 ft 261 kts 76°
2026-05-08 01:12 42.47311 -70.75471 3981 ft 249 kts 75°
2026-05-08 01:12 42.47687 -70.73248 3981 ft 236 kts 77°
2026-05-08 01:12 42.47630 -70.71057 3996 ft 235 kts 109°
2026-05-08 01:12 42.46734 -70.69260 4023 ft 232 kts 143°
2026-05-08 01:13 42.45308 -70.68295 4014 ft 229 kts 163°
2026-05-08 01:13 42.43796 -70.67632 4003 ft 227 kts 165°
2026-05-08 01:13 42.42287 -70.67003 3999 ft 227 kts 169°
2026-05-08 01:13 42.40756 -70.66994 3980 ft 220 kts 200°
2026-05-08 01:14 42.39466 -70.68095 3595 ft 222 kts 234°
2026-05-08 01:14 42.38869 -70.69944 3222 ft 214 kts 266°
2026-05-08 01:14 42.39054 -70.71879 3058 ft 206 kts 284°
2026-05-08 01:14 42.39402 -70.73737 3001 ft 202 kts 285°
2026-05-08 01:15 42.39751 -70.75563 3018 ft 201 kts 284°
2026-05-08 01:15 42.39745 -70.77460 3020 ft 206 kts 260°
2026-05-08 01:15 42.39433 -70.79369 2902 ft 209 kts 261°
2026-05-08 01:15 42.39122 -70.81280 2626 ft 205 kts 259°
2026-05-08 01:16 42.38800 -70.83108 2361 ft 193 kts 260°
2026-05-08 01:16 42.38498 -70.84795 2130 ft 176 kts 260°
2026-05-08 01:16 42.38222 -70.86341 1885 ft 163 kts 261°
2026-05-08 01:16 42.37965 -70.87792 1680 ft 156 kts 261°
2026-05-08 01:17 42.37718 -70.89184 1453 ft 149 kts 261°
2026-05-08 01:17 42.37493 -70.90519 1269 ft 143 kts 262°
2026-05-08 01:17 42.37273 -70.91838 1140 ft 145 kts 260°
2026-05-08 01:17 42.37030 -70.93191 906 ft 149 kts 258°
2026-05-08 01:18 42.36789 -70.94539 762 ft 146 kts 258°
2026-05-08 01:18 42.36555 -70.95873 555 ft 144 kts 259°
2026-05-08 01:18 42.36315 -70.97183 328 ft 142 kts 258°
2026-05-08 01:18 42.36078 -70.98480 114 ft 143 kts 259°
2026-05-08 01:19 42.35849 -70.99757 31 ft 131 kts 258°
2026-05-08 01:19 42.35683 -71.00672 20 ft 70 kts 256°
2026-05-08 01:19 42.35637 -71.01067 21 ft 25 kts 283°
2026-05-08 01:19 42.35668 -71.01169 22 ft 8 kts 302°
2026-05-08 01:20 42.35681 -71.01194 22 ft 0 kts 306°
2026-05-08 01:21 42.35683 -71.01198 22 ft 2 kts 306°
2026-05-08 01:21 42.35707 -71.01240 22 ft 10 kts 309°
2026-05-08 01:22 42.35749 -71.01334 23 ft 12 kts 288°
2026-05-08 01:22 42.35775 -71.01442 25 ft 12 kts 288°
2026-05-08 01:22 42.35802 -71.01546 24 ft 12 kts 290°
2026-05-08 01:22 42.35823 -71.01649 23 ft 11 kts 280°
2026-05-08 01:23 42.35837 -71.01752 24 ft 11 kts 284°
2026-05-08 01:23 42.35857 -71.01849 22 ft 11 kts 287°
2026-05-08 01:23 42.35878 -71.01944 25 ft 10 kts 286°
2026-05-08 01:23 42.35893 -71.02029 24 ft 7 kts 272°
2026-05-08 01:24 42.35872 -71.02070 22 ft 2 kts 214°
2026-05-08 01:24 42.35865 -71.02076 23 ft 0 kts 214°